Location: Killam
(52.7910°N, 111.8608°W)
Time: 15:43:24
(UTC+00:00)

Transit 2A - Pass Details

Date: 20 February 2026
Orbit: 590 x 954 km, 66.7° (Epoch: 9 March)

Event Time Altitude Azimuth Distance (km) Brightness Sun altitude
Rises 03:56:02 0° 319° (NW) 3,603 10.4 -28.7°
Reaches altitude 10° 03:58:40 10° 318° (NW) 2,627 9.5 -29.1°
Enters shadow 04:04:34 73° 256° (WSW) 915 6.3 -29.9°
